Regional Weather Roundup
Issued by NWS

Home | Current Version | Previous Version | Text Only | Print | Product List | Glossary On
Versions: 1 2 3 4 5 6 7 8 9 10 11 12 13 14 15 16 17 18 19 20 21 22 23 24 25 26 27 28 29 30 31 32 33 34 35 36 37 38 39 40 41 42 43 44 45 46 47 48 49 50
000
ASUS44 KFWD 211015
RWRTX
NORTH TEXAS HOURLY WEATHER ROUNDUP
NATIONAL WEATHER SERVICE FORT WORTH TX
400 AM CST SUN DEC 21 2014

NOTE: "FAIR" INDICATES FEW OR NO CLOUDS BELOW 12,000 FEET WITH NO
SIGNIFICANT WEATHER AND/OR OBSTRUCTIONS TO VISIBILITY.

TXZ118-119-211100-
DALLAS/FORT WORTH METROPLEX

CITY           SKY/WX    TMP DP  RH WIND       PRES   REMARKS
DFW AIRPORT    CLOUDY    47  44  90 S8        30.11F
DALLAS LOVE    CLOUDY    48  44  86 SE8       30.13F
FTW MEACHAM    CLOUDY    48  44  86 SE12      30.10F FOG
DAL-EXECUTIVE  CLOUDY    49  44  83 SE5       30.12F
FTW-ALLIANCE   CLOUDY    46  44  93 SE7       30.10F FOG
FTW-SPINKS     CLOUDY    47  45  92 SE5       30.12F FOG
ARLINGTON      CLOUDY    49  43  80 SE7       30.12F
GRAND PRAIRIE  CLOUDY   N/A N/A N/A MISG      30.14F
ADDISON        CLOUDY    48  47  96 SE9       30.14F
MESQUITE       CLOUDY    47  45  92 SE3       30.14F
LANCASTER      CLOUDY    47  44  90 SE3       30.15F
$$

TXZ091>094-102>105-117-120-121-131>134-211100-
NORTH CENTRAL TEXAS

CITY           SKY/WX    TMP DP  RH WIND       PRES   REMARKS
SHRMAN/DENISON CLOUDY    47  46  97 SE9       30.12F FOG
GAINESVILLE    CLOUDY    45  44  96 SE6       30.13F FOG
BOWIE          CLOUDY    44  43  97 SE6       30.08F FOG
BRIDGEPORT     CLOUDY    45  45  98 S5        30.12S FOG
DECATUR        CLOUDY    44  44  99 SE5       30.09F FOG
DENTON         CLOUDY    46  44  93 SE8       30.10F FOG
MCKINNEY       CLOUDY    47  45  93 S7        30.13F
GREENVILLE     CLOUDY    46  43  87 SE3       30.15F FOG
ROCKWALL       CLOUDY    47  45  93 SE3       30.13F
TERRELL        CLOUDY    48  44  86 CALM      30.15F
WAXAHACHIE     CLOUDY    46  46  97 SE5       30.14F
CLEBURNE       CLOUDY    46  46 100 SE7       30.12F
GRANBURY       CLOUDY    48  46  90 SE7       30.12F FOG
$$

TXZ083>090-098>101-113>116-127>130-139>142-154-155-211100-
WESTERN NORTH TEXAS

CITY           SKY/WX    TMP DP  RH WIND       PRES   REMARKS
WICHITA FALLS  CLOUDY    43  39  86 SE8       30.07F WCI  38
WF-KICKAPOO    CLOUDY    43  40  88 SE6       30.09S WCI  39
VERNON         CLOUDY    44  39  81 SE7       30.05F
ABILENE        CLOUDY    46  41  82 S15       30.03F WCI  40
ABILENE-DYESS  MOCLDY    45  39  80 S9        30.02F
BRECKENRIDGE   CLOUDY    48  41  76 SE10G16   30.05F
GRAHAM         CLOUDY    45  43  92 SE6       30.06F
MINERAL WELLS  CLOUDY    46  44  93 SE9       30.07F FOG
STEPHENVILLE   CLOUDY    46  42  85 S7        30.11F
COMANCHE       CLOUDY    47  44  90 S7        30.09F
BROWNWOOD      CLOUDY    46  41  81 SE10G16   30.09F
COLEMAN        CLOUDY    45  44  95 S9        30.07S
BRADY          CLOUDY    45  43  93 SE8       30.05F
$$

TXZ143>147-156>162-174-175-211100-
CENTRAL TEXAS

CITY           SKY/WX    TMP DP  RH WIND       PRES   REMARKS
WACO           CLOUDY    47  45  93 SE8       30.13F FOG
WACO-MCGREGOR  CLOUDY    46  43  87 SE9       30.13F
HILLSBORO      CLOUDY    47  43  85 SE9       30.12F
CORSICANA      CLOUDY    47  43  86 NE3       30.16S
MEXIA          CLOUDY    47  43  88 SE3       30.14F
HEARNE         CLOUDY    47  46  98 CALM      30.16F FOG
CAMERON        CLOUDY    48  46  93 CALM      30.14F
TEMPLE         CLOUDY    46  43  87 E6        30.12F
KILLEEN        NOT AVBL
KILLEEN-SKYLRK CLOUDY    48  43  81 CALM      30.10F
FORT HOOD      CLOUDY    48  46  93 S6        30.11F
GATESVILLE     CLOUDY    48  46  93 CALM      30.13F
HAMILTON       CLOUDY    47  45  91 S9        30.11F
$$

TXZ095>097-106>112-122>126-135>138-148>153-164>167-211100-
EAST TEXAS

CITY           SKY/WX    TMP DP  RH WIND       PRES   REMARKS
PARIS          CLOUDY    45  41  87 S3        30.16F
SULPHUR SPRNGS CLOUDY    47  44  90 S5        30.17S
MOUNT PLEASANT CLOUDY    42  42 100 CALM      30.17F
MINEOLA        CLOUDY    45  45 100 CALM      30.16F FOG
TYLER          CLOUDY    44  41  89 E3        30.14F
LONGVIEW       CLOUDY    39  38  96 CALM      30.15F FOG
MARSHALL       MOCLDY    36  34  94 CALM      30.18F
ATHENS         CLOUDY    43  43 100 CALM      30.14F
PALESTINE      CLOUDY    43  43 100 SE3       30.16F FOG
JACKSONVILLE   CLOUDY    42  42  99 CALM      30.16F FOG
HENDERSON      CLOUDY    39  39 100 CALM      30.17F FOG
NACOGDOCHES    PTCLDY    36  34  93 CALM      30.16F
LUFKIN         MOCLDY    43  39  86 CALM      30.15F FOG
$$

SUPPLEMENTAL OBSERVATIONS (CENTRAL)

CITY           SKY/WX    TMP DP  RH WIND       PRES   REMARKS
LAKE TEXOMA      N/A     46  43  87 SE6         N/A
CADDO GRASSLND   N/A     46  41  81 S5          N/A
PAT MAYSE LAKE   N/A     45  43  93 SE5         N/A
GREENVILLE       N/A     46  41  81 SE5         N/A
PALESTINE        N/A     43  41  93 CALM        N/A
LAKE LIMESTONE   N/A     46  41  81 CALM        N/A
MCGREGOR         N/A     46  43  87 SE8         N/A
TEMPLE           N/A     46  43  87 E5          N/A
$$

SUPPLEMENTAL OBSERVATIONS (WEST)

CITY           SKY/WX    TMP DP  RH WIND       PRES   REMARKS
MILLERS CREEK    N/A     43  39  87 S6          N/A  WCI  39
POSSUM KINGDOM   N/A     46  41  81 SE9         N/A
LBJ GRASSLAND    N/A     45  41  87 SE8         N/A
GRANBURY         N/A     46  41  81 SE8         N/A
COMANCHE         N/A     46  45  93 S10         N/A
HAMBY            N/A     45  39  81 S13         N/A  WCI  38
IVIE RESERVOIR   N/A     46  41  81 SE7         N/A
COLORADO BEND    N/A     46  41  81 S6G14       N/A
$$

SUPPLEMENTAL OBSERVATIONS (EAST)

CITY           SKY/WX    TMP DP  RH WIND       PRES   REMARKS
CLARKSVILLE      N/A     45  43  93 SE6         N/A
TEXARKANA        N/A     32  32 100 CALM        N/A
LINDEN           N/A     37  36  93 CALM        N/A
CADDO LAKE       N/A     32  32 100 CALM        N/A
GILMER           N/A     39  37  93 CALM        N/A
HENDERSON        N/A     39  36  87 NE2         N/A
LUFKIN           N/A     39  37  93 MISG        N/A
N SABINE NF      N/A     34  32  93 MISG        N/A
S SABINE NF      N/A     37  34  87 NW1         N/A
$$

SUPPLEMENTAL OBSERVATIONS ARE A COLLECTION OF AUTOMATED INSTRUMENTS
THAT ARE MAINTAINED BY A VARIETY OF FEDERAL AND STATE AGENCIES.
CERTAIN ELEMENTS...SUCH AS HUMIDITY VALUES AND SUSTAINED WIND
SPEEDS...MAY BE APPROXIMATED.




USA.gov is the U.S. government's official web portal to all federal, state and local government web resources and services.